Wetterdaten: Woche 30.10.23 - 05.11.23 (KW44)
Datum Zeit Temp. I. Temp. A. Feuchte I. Feuchte A. Luftdruck Regen Wind Richtung Sonnenschein Solar Taupunkt Windchill Windböen
30.10.2023 00:00 21,2 °C 11,4 °C 63 % 87 % 1002,5 hPa 0,0 l/m² 1,4 km/h (1 Bft) W 0,00 h 0 W/m² 9,3 °C 11,4 °C 2,9 km/h (1 Bft)
30.10.2023 01:00 21,2 °C 10,9 °C 63 % 89 % 1003,1 hPa 0,0 l/m² 5,6 km/h (2 Bft) S-SW 0,00 h 0 W/m² 9,2 °C 10,4 °C 8,2 km/h (2 Bft)
30.10.2023 02:00 21,2 °C 10,5 °C 63 % 89 % 1003,7 hPa 0,0 l/m² 4,4 km/h (1 Bft) S 0,00 h 0 W/m² 8,8 °C 10,4 °C 7,6 km/h (2 Bft)
30.10.2023 03:00 21,1 °C 11,5 °C 63 % 87 % 1003,6 hPa 0,0 l/m² 5,9 km/h (2 Bft) S-SO 0,00 h 0 W/m² 9,4 °C 11,3 °C 8,4 km/h (2 Bft)
30.10.2023 04:00 21,1 °C 11,4 °C 63 % 88 % 1003,5 hPa 0,0 l/m² 4,1 km/h (1 Bft) S-SO 0,00 h 0 W/m² 9,5 °C 11,4 °C 7,4 km/h (2 Bft)
30.10.2023 05:00 21,0 °C 11,3 °C 63 % 87 % 1003,7 hPa 0,0 l/m² 2,9 km/h (1 Bft) S 0,00 h 0 W/m² 9,3 °C 11,3 °C 5,5 km/h (2 Bft)
30.10.2023 06:00 21,0 °C 11,1 °C 63 % 89 % 1003,8 hPa 0,0 l/m² 4,0 km/h (1 Bft) O 0,00 h 0 W/m² 9,3 °C 10,9 °C 6,6 km/h (2 Bft)
30.10.2023 07:00 20,9 °C 11,4 °C 63 % 88 % 1003,9 hPa 0,0 l/m² 3,6 km/h (1 Bft) S-SO 0,00 h 14 W/m² 9,5 °C 11,3 °C 5,8 km/h (2 Bft)
30.10.2023 08:00 21,1 °C 11,4 °C 64 % 89 % 1004,4 hPa 0,0 l/m² 3,2 km/h (1 Bft) O-SO 0,00 h 27 W/m² 9,7 °C 11,4 °C 5,6 km/h (2 Bft)
30.10.2023 09:00 21,2 °C 12,2 °C 64 % 88 % 1004,3 hPa 0,0 l/m² 7,1 km/h (2 Bft) O-SO 0,63 h 68 W/m² 10,3 °C 11,2 °C 10,7 km/h (2 Bft)
30.10.2023 10:00 21,1 °C 13,2 °C 62 % 86 % 1004,5 hPa 0,0 l/m² 3,4 km/h (1 Bft) O-SO 1,00 h 129 W/m² 10,9 °C 13,1 °C 5,1 km/h (1 Bft)
30.10.2023 11:00 21,1 °C 13,5 °C 62 % 86 % 1004,4 hPa 0,0 l/m² 4,3 km/h (1 Bft) O-NO 1,00 h 123 W/m² 11,3 °C 13,5 °C 6,7 km/h (2 Bft)
30.10.2023 12:00 21,1 °C 14,5 °C 61 % 83 % 1004,1 hPa 0,0 l/m² 1,8 km/h (1 Bft) S 1,00 h 212 W/m² 11,6 °C 14,5 °C 3,6 km/h (1 Bft)
30.10.2023 13:00 21,1 °C 14,6 °C 61 % 83 % 1003,3 hPa 0,0 l/m² 2,4 km/h (1 Bft) S 0,57 h 75 W/m² 11,7 °C 14,6 °C 4,1 km/h (1 Bft)
30.10.2023 14:00 21,2 °C 14,2 °C 64 % 86 % 1002,5 hPa 0,0 l/m² 3,2 km/h (1 Bft) SO 1,00 h 83 W/m² 11,8 °C 14,1 °C 5,2 km/h (1 Bft)
30.10.2023 15:00 21,2 °C 13,8 °C 63 % 87 % 1001,8 hPa 0,0 l/m² 5,8 km/h (2 Bft) O 0,12 h 43 W/m² 11,6 °C 13,6 °C 8,8 km/h (2 Bft)
30.10.2023 16:00 21,2 °C 13,1 °C 63 % 89 % 1001,3 hPa 0,0 l/m² 4,8 km/h (1 Bft) O 0,00 h 17 W/m² 11,3 °C 13,0 °C 7,2 km/h (2 Bft)
30.10.2023 17:00 21,1 °C 12,8 °C 63 % 90 % 1000,5 hPa 0,0 l/m² 7,2 km/h (2 Bft) O-NO 0,00 h 0 W/m² 11,2 °C 12,1 °C 12,3 km/h (2 Bft)
30.10.2023 18:00 21,1 °C 12,6 °C 63 % 89 % 1000,0 hPa 0,0 l/m² 3,9 km/h (1 Bft) O-NO 0,00 h 0 W/m² 10,9 °C 12,3 °C 6,7 km/h (2 Bft)
30.10.2023 19:00 21,1 °C 11,4 °C 63 % 91 % 999,1 hPa 0,0 l/m² 0,1 km/h (0 Bft) O-NO 0,00 h 0 W/m² 10,0 °C 11,4 °C 0,4 km/h (0 Bft)
30.10.2023 20:00 21,2 °C 11,0 °C 64 % 93 % 998,3 hPa 0,0 l/m² 1,2 km/h (1 Bft) W-NW 0,00 h 0 W/m² 10,0 °C 11,0 °C 2,5 km/h (1 Bft)
30.10.2023 21:00 21,5 °C 11,1 °C 65 % 94 % 997,8 hPa 0,0 l/m² 1,1 km/h (1 Bft) S-SW 0,00 h 0 W/m² 10,2 °C 11,0 °C 2,6 km/h (1 Bft)
30.10.2023 22:00 21,5 °C 11,2 °C 64 % 94 % 997,1 hPa 0,2 l/m² 0,8 km/h (0 Bft) SW 0,00 h 0 W/m² 10,3 °C 11,2 °C 2,0 km/h (1 Bft)
30.10.2023 23:00 21,2 °C 11,2 °C 64 % 94 % 996,1 hPa 0,2 l/m² 0,7 km/h (0 Bft) W-NW 0,00 h 0 W/m² 10,3 °C 11,2 °C 1,1 km/h (0 Bft)
31.10.2023 00:00 21,1 °C 11,2 °C 64 % 95 % 996,1 hPa 0,4 l/m² 0,9 km/h (0 Bft) S 0,00 h 0 W/m² 10,4 °C 11,2 °C 1,6 km/h (1 Bft)
31.10.2023 01:00 21,1 °C 11,2 °C 64 % 95 % 996,2 hPa 1,6 l/m² 0,0 km/h (0 Bft) S 0,00 h 0 W/m² 10,4 °C 11,2 °C 0,1 km/h (0 Bft)
31.10.2023 02:00 21,2 °C 11,3 °C 64 % 95 % 995,8 hPa 0,4 l/m² 0,0 km/h (0 Bft) S 0,00 h 0 W/m² 10,6 °C 11,3 °C 0,1 km/h (0 Bft)
31.10.2023 03:00 21,1 °C 11,5 °C 64 % 96 % 995,4 hPa 0,2 l/m² 1,5 km/h (1 Bft) S-SW 0,00 h 0 W/m² 10,9 °C 11,5 °C 2,9 km/h (1 Bft)
31.10.2023 04:00 21,1 °C 11,6 °C 64 % 96 % 995,1 hPa 0,2 l/m² 3,6 km/h (1 Bft) S-SW 0,00 h 0 W/m² 11,0 °C 11,4 °C 6,0 km/h (2 Bft)
31.10.2023 05:00 21,1 °C 12,1 °C 64 % 96 % 995,4 hPa 0,0 l/m² 8,8 km/h (2 Bft) SW 0,00 h 0 W/m² 11,5 °C 10,6 °C 13,4 km/h (3 Bft)
31.10.2023 06:00 21,0 °C 12,3 °C 63 % 93 % 995,8 hPa 0,0 l/m² 17,8 km/h (3 Bft) SW 0,00 h 0 W/m² 11,2 °C 7,1 °C 25,7 km/h (4 Bft)
31.10.2023 07:00 20,9 °C 12,0 °C 63 % 85 % 996,6 hPa 0,0 l/m² 17,7 km/h (3 Bft) SW 0,00 h 27 W/m² 9,6 °C 6,7 °C 24,7 km/h (4 Bft)
31.10.2023 08:00 20,9 °C 12,1 °C 64 % 85 % 997,6 hPa 0,0 l/m² 14,0 km/h (3 Bft) SW 0,55 h 53 W/m² 9,7 °C 8,2 °C 20,0 km/h (4 Bft)
31.10.2023 09:00 21,2 °C 12,2 °C 64 % 83 % 998,6 hPa 0,0 l/m² 15,6 km/h (3 Bft) SW 1,00 h 153 W/m² 9,5 °C 7,7 °C 22,9 km/h (4 Bft)
31.10.2023 10:00 21,8 °C 13,3 °C 63 % 80 % 999,0 hPa 0,0 l/m² 22,4 km/h (4 Bft) SW 1,00 h 345 W/m² 9,9 °C 7,0 °C 31,5 km/h (5 Bft)
31.10.2023 11:00 21,8 °C 12,9 °C 59 % 81 % 999,3 hPa 0,0 l/m² 24,0 km/h (4 Bft) SW 1,00 h 174 W/m² 9,7 °C 6,2 °C 33,0 km/h (5 Bft)
31.10.2023 12:00 21,5 °C 12,7 °C 59 % 85 % 999,8 hPa 0,0 l/m² 19,9 km/h (4 Bft) W-SW 0,97 h 313 W/m² 10,3 °C 7,0 °C 26,9 km/h (4 Bft)
31.10.2023 13:00 21,6 °C 13,2 °C 60 % 80 % 1000,6 hPa 0,0 l/m² 21,6 km/h (4 Bft) W-SW 1,00 h 286 W/m² 9,8 °C 7,1 °C 29,5 km/h (5 Bft)
31.10.2023 14:00 21,5 °C 13,4 °C 61 % 78 % 1001,4 hPa 0,0 l/m² 21,8 km/h (4 Bft) W-SW 0,87 h 195 W/m² 9,5 °C 7,2 °C 28,9 km/h (5 Bft)
31.10.2023 15:00 21,5 °C 12,6 °C 62 % 80 % 1002,1 hPa 0,0 l/m² 15,8 km/h (3 Bft) SW 0,23 h 36 W/m² 9,2 °C 8,1 °C 21,8 km/h (4 Bft)
31.10.2023 16:00 21,5 °C 12,2 °C 61 % 81 % 1002,7 hPa 0,0 l/m² 13,1 km/h (3 Bft) SW 0,00 h 8 W/m² 9,0 °C 8,6 °C 18,7 km/h (3 Bft)
31.10.2023 17:00 21,3 °C 11,7 °C 59 % 84 % 1003,6 hPa 0,0 l/m² 13,2 km/h (3 Bft) SW 0,00 h 0 W/m² 9,1 °C 8,0 °C 17,6 km/h (3 Bft)
31.10.2023 18:00 21,2 °C 11,8 °C 60 % 84 % 1004,6 hPa 0,0 l/m² 15,6 km/h (3 Bft) SW 0,00 h 0 W/m² 9,2 °C 7,2 °C 20,8 km/h (4 Bft)
31.10.2023 19:00 21,2 °C 11,7 °C 61 % 84 % 1005,4 hPa 0,0 l/m² 13,1 km/h (3 Bft) SW 0,00 h 0 W/m² 9,0 °C 8,2 °C 18,2 km/h (3 Bft)
31.10.2023 20:00 21,3 °C 11,2 °C 63 % 86 % 1005,9 hPa 0,0 l/m² 11,6 km/h (2 Bft) SW 0,00 h 0 W/m² 9,0 °C 8,3 °C 15,2 km/h (3 Bft)
31.10.2023 21:00 21,3 °C 11,0 °C 63 % 86 % 1006,4 hPa 0,0 l/m² 10,4 km/h (2 Bft) SW 0,00 h 0 W/m² 8,8 °C 8,6 °C 14,4 km/h (3 Bft)
31.10.2023 22:00 21,2 °C 10,1 °C 63 % 88 % 1006,4 hPa 0,0 l/m² 11,5 km/h (2 Bft) SW 0,00 h 0 W/m² 8,2 °C 7,0 °C 15,1 km/h (3 Bft)
31.10.2023 23:00 21,1 °C 9,5 °C 63 % 89 % 1006,8 hPa 0,0 l/m² 3,7 km/h (1 Bft) SW 0,00 h 0 W/m² 7,9 °C 9,3 °C 5,8 km/h (2 Bft)
01.11.2023 00:00 21,1 °C 9,9 °C 63 % 90 % 1007,0 hPa 0,0 l/m² 6,8 km/h (2 Bft) S-SW 0,00 h 0 W/m² 8,3 °C 9,2 °C 9,8 km/h (2 Bft)
01.11.2023 01:00 21,1 °C 9,7 °C 63 % 90 % 1007,1 hPa 0,0 l/m² 7,2 km/h (2 Bft) S-SW 0,00 h 0 W/m² 8,1 °C 8,9 °C 9,9 km/h (2 Bft)
01.11.2023 02:00 21,1 °C 8,9 °C 63 % 91 % 1007,1 hPa 0,0 l/m² 4,8 km/h (1 Bft) SW 0,00 h 0 W/m² 7,5 °C 8,3 °C 7,5 km/h (2 Bft)
01.11.2023 03:00 21,1 °C 9,1 °C 63 % 92 % 1007,0 hPa 0,0 l/m² 3,7 km/h (1 Bft) S-SW 0,00 h 0 W/m² 7,8 °C 9,1 °C 6,1 km/h (2 Bft)
01.11.2023 04:00 21,0 °C 9,1 °C 63 % 93 % 1006,9 hPa 0,0 l/m² 4,5 km/h (1 Bft) S 0,00 h 0 W/m² 8,0 °C 8,9 °C 7,1 km/h (2 Bft)
01.11.2023 05:00 21,1 °C 9,2 °C 64 % 92 % 1006,9 hPa 0,0 l/m² 5,5 km/h (2 Bft) S 0,00 h 0 W/m² 7,9 °C 8,9 °C 8,3 km/h (2 Bft)
01.11.2023 06:00 21,1 °C 8,5 °C 64 % 92 % 1006,8 hPa 0,0 l/m² 0,3 km/h (0 Bft) SO 0,00 h 0 W/m² 7,3 °C 8,5 °C 0,7 km/h (0 Bft)
01.11.2023 07:00 21,0 °C 8,7 °C 62 % 94 % 1006,7 hPa 0,0 l/m² 3,9 km/h (1 Bft) SO 0,00 h 22 W/m² 7,7 °C 8,2 °C 6,0 km/h (2 Bft)
01.11.2023 08:00 21,0 °C 10,7 °C 62 % 91 % 1006,7 hPa 0,0 l/m² 4,6 km/h (1 Bft) S-SO 0,58 h 54 W/m² 9,3 °C 10,4 °C 7,4 km/h (2 Bft)
01.11.2023 09:00 21,1 °C 11,9 °C 62 % 89 % 1006,3 hPa 0,0 l/m² 6,4 km/h (2 Bft) S-SO 1,00 h 117 W/m² 10,2 °C 11,0 °C 9,8 km/h (2 Bft)
01.11.2023 10:00 21,1 °C 12,5 °C 62 % 88 % 1006,3 hPa 0,2 l/m² 6,8 km/h (2 Bft) S-SO 0,83 h 67 W/m² 10,6 °C 11,5 °C 10,1 km/h (2 Bft)
01.11.2023 11:00 21,1 °C 13,4 °C 62 % 86 % 1005,7 hPa 0,0 l/m² 10,7 km/h (2 Bft) S-SO 0,98 h 120 W/m² 11,1 °C 11,1 °C 14,9 km/h (3 Bft)
01.11.2023 12:00 21,1 °C 13,8 °C 62 % 85 % 1005,1 hPa 0,0 l/m² 9,3 km/h (2 Bft) S 1,00 h 84 W/m² 11,3 °C 12,1 °C 12,9 km/h (3 Bft)
01.11.2023 13:00 21,1 °C 14,3 °C 62 % 83 % 1004,6 hPa 0,0 l/m² 11,7 km/h (2 Bft) S 1,00 h 108 W/m² 11,4 °C 11,7 °C 15,1 km/h (3 Bft)
01.11.2023 14:00 21,1 °C 14,3 °C 62 % 82 % 1004,3 hPa 0,0 l/m² 9,1 km/h (2 Bft) S 0,70 h 78 W/m² 11,3 °C 12,8 °C 12,6 km/h (3 Bft)
01.11.2023 15:00 21,2 °C 14,0 °C 62 % 82 % 1003,8 hPa 0,0 l/m² 11,6 km/h (2 Bft) S 0,45 h 66 W/m² 10,9 °C 11,4 °C 16,3 km/h (3 Bft)
01.11.2023 16:00 21,2 °C 13,0 °C 62 % 84 % 1003,1 hPa 0,0 l/m² 8,3 km/h (2 Bft) S-SO 0,00 h 14 W/m² 10,4 °C 11,8 °C 11,8 km/h (2 Bft)
01.11.2023 17:00 21,1 °C 12,5 °C 61 % 85 % 1002,9 hPa 0,0 l/m² 6,1 km/h (2 Bft) SO 0,00 h 0 W/m² 10,0 °C 12,2 °C 8,9 km/h (2 Bft)
01.11.2023 18:00 21,0 °C 12,5 °C 61 % 85 % 1002,8 hPa 0,0 l/m² 5,2 km/h (1 Bft) SO 0,00 h 0 W/m² 10,0 °C 12,4 °C 8,0 km/h (2 Bft)
01.11.2023 19:00 21,1 °C 12,4 °C 62 % 85 % 1002,5 hPa 0,0 l/m² 6,4 km/h (2 Bft) SO 0,00 h 0 W/m² 9,9 °C 12,0 °C 9,4 km/h (2 Bft)
01.11.2023 20:00 21,2 °C 12,1 °C 63 % 86 % 1002,1 hPa 0,0 l/m² 6,6 km/h (2 Bft) SO 0,00 h 0 W/m² 9,8 °C 11,5 °C 9,9 km/h (2 Bft)
01.11.2023 21:00 21,2 °C 11,7 °C 62 % 87 % 1001,6 hPa 0,0 l/m² 5,0 km/h (1 Bft) SO 0,00 h 0 W/m² 9,6 °C 11,6 °C 7,9 km/h (2 Bft)
01.11.2023 22:00 21,2 °C 11,6 °C 62 % 86 % 1001,3 hPa 0,0 l/m² 5,2 km/h (1 Bft) SO 0,00 h 0 W/m² 9,3 °C 11,3 °C 8,5 km/h (2 Bft)
01.11.2023 23:00 21,2 °C 11,3 °C 62 % 85 % 1000,8 hPa 0,0 l/m² 1,3 km/h (1 Bft) SO 0,00 h 0 W/m² 9,0 °C 11,3 °C 2,7 km/h (1 Bft)
02.11.2023 00:00 21,1 °C 11,3 °C 62 % 85 % 1000,4 hPa 0,0 l/m² 5,1 km/h (1 Bft) S-SO 0,00 h 0 W/m² 8,9 °C 11,2 °C 7,7 km/h (2 Bft)
02.11.2023 01:00 21,1 °C 11,2 °C 62 % 84 % 999,6 hPa 0,0 l/m² 5,0 km/h (1 Bft) S-SO 0,00 h 0 W/m² 8,7 °C 11,1 °C 7,5 km/h (2 Bft)
02.11.2023 02:00 21,0 °C 10,9 °C 62 % 84 % 998,8 hPa 0,0 l/m² 7,6 km/h (2 Bft) S-SO 0,00 h 0 W/m² 8,4 °C 9,8 °C 11,1 km/h (2 Bft)
02.11.2023 03:00 20,9 °C 9,8 °C 62 % 85 % 998,1 hPa 0,0 l/m² 4,5 km/h (1 Bft) SO 0,00 h 0 W/m² 7,4 °C 9,7 °C 6,8 km/h (2 Bft)
02.11.2023 04:00 20,9 °C 9,4 °C 62 % 87 % 996,9 hPa 0,0 l/m² 13,1 km/h (3 Bft) O-SO 0,00 h 0 W/m² 7,3 °C 5,3 °C 17,4 km/h (3 Bft)
02.11.2023 05:00 21,1 °C 9,1 °C 62 % 86 % 995,9 hPa 0,0 l/m² 13,7 km/h (3 Bft) SO 0,00 h 0 W/m² 6,9 °C 4,7 °C 18,0 km/h (3 Bft)
02.11.2023 06:00 21,1 °C 8,7 °C 62 % 87 % 994,5 hPa 0,0 l/m² 9,4 km/h (2 Bft) O-SO 0,00 h 0 W/m² 6,6 °C 6,5 °C 13,3 km/h (3 Bft)
02.11.2023 07:00 21,0 °C 8,8 °C 60 % 86 % 993,8 hPa 0,0 l/m² 6,0 km/h (2 Bft) O-SO 0,00 h 17 W/m² 6,7 °C 8,2 °C 8,9 km/h (2 Bft)
02.11.2023 08:00 21,0 °C 9,4 °C 60 % 85 % 993,0 hPa 0,0 l/m² 7,8 km/h (2 Bft) SO 0,00 h 37 W/m² 7,0 °C 8,1 °C 11,6 km/h (2 Bft)
02.11.2023 09:00 21,1 °C 9,8 °C 60 % 84 % 991,8 hPa 0,0 l/m² 9,6 km/h (2 Bft) O-SO 0,30 h 42 W/m² 7,3 °C 7,6 °C 13,7 km/h (3 Bft)
02.11.2023 10:00 21,1 °C 10,4 °C 60 % 84 % 990,8 hPa 0,0 l/m² 7,7 km/h (2 Bft) O-SO 1,00 h 95 W/m² 7,8 °C 9,1 °C 11,4 km/h (2 Bft)
02.11.2023 11:00 21,0 °C 11,1 °C 60 % 83 % 989,6 hPa 0,0 l/m² 10,1 km/h (2 Bft) O 1,00 h 87 W/m² 8,3 °C 8,9 °C 13,7 km/h (3 Bft)
02.11.2023 12:00 21,0 °C 11,6 °C 60 % 81 % 988,0 hPa 0,0 l/m² 13,1 km/h (3 Bft) O-SO 0,78 h 72 W/m² 8,5 °C 8,1 °C 17,4 km/h (3 Bft)
02.11.2023 13:00 20,9 °C 13,2 °C 60 % 77 % 987,5 hPa 0,0 l/m² 13,6 km/h (3 Bft) SO 1,00 h 122 W/m² 9,3 °C 9,7 °C 18,6 km/h (3 Bft)
02.11.2023 14:00 20,9 °C 14,0 °C 60 % 75 % 987,1 hPa 0,0 l/m² 18,1 km/h (3 Bft) S-SO 0,13 h 41 W/m² 9,5 °C 9,0 °C 24,7 km/h (4 Bft)
02.11.2023 15:00 20,9 °C 13,1 °C 60 % 81 % 986,5 hPa 0,4 l/m² 13,6 km/h (3 Bft) S-SO 0,03 h 19 W/m² 9,8 °C 9,5 °C 19,2 km/h (3 Bft)
02.11.2023 16:00 20,9 °C 12,6 °C 60 % 82 % 986,2 hPa 0,4 l/m² 11,8 km/h (2 Bft) SO 0,00 h 6 W/m² 9,7 °C 9,7 °C 16,4 km/h (3 Bft)
02.11.2023 17:00 21,0 °C 11,9 °C 61 % 84 % 986,4 hPa 0,0 l/m² 11,5 km/h (2 Bft) S-SO 0,00 h 0 W/m² 9,4 °C 9,1 °C 15,4 km/h (3 Bft)
02.11.2023 18:00 21,1 °C 12,0 °C 61 % 82 % 986,1 hPa 0,0 l/m² 15,9 km/h (3 Bft) SO 0,00 h 0 W/m² 9,1 °C 7,3 °C 21,0 km/h (4 Bft)
02.11.2023 19:00 20,9 °C 11,8 °C 61 % 82 % 986,1 hPa 0,0 l/m² 14,7 km/h (3 Bft) SO 0,00 h 0 W/m² 8,8 °C 7,4 °C 19,3 km/h (3 Bft)
02.11.2023 20:00 20,8 °C 11,5 °C 61 % 83 % 986,2 hPa 0,0 l/m² 9,9 km/h (2 Bft) SO 0,00 h 0 W/m² 8,7 °C 9,4 °C 13,9 km/h (3 Bft)
02.11.2023 21:00 20,9 °C 11,0 °C 62 % 84 % 986,4 hPa 0,0 l/m² 7,9 km/h (2 Bft) SO 0,00 h 0 W/m² 8,4 °C 9,9 °C 11,4 km/h (2 Bft)
02.11.2023 22:00 20,9 °C 10,8 °C 63 % 84 % 985,7 hPa 0,0 l/m² 9,9 km/h (2 Bft) SO 0,00 h 0 W/m² 8,3 °C 8,7 °C 14,4 km/h (3 Bft)
02.11.2023 23:00 20,9 °C 10,7 °C 63 % 84 % 985,6 hPa 0,0 l/m² 11,6 km/h (2 Bft) SO 0,00 h 0 W/m² 8,1 °C 7,5 °C 16,8 km/h (3 Bft)
03.11.2023 00:00 20,9 °C 10,3 °C 63 % 85 % 985,3 hPa 0,0 l/m² 4,8 km/h (1 Bft) SO 0,00 h 0 W/m² 7,8 °C 10,0 °C 7,6 km/h (2 Bft)
03.11.2023 01:00 20,9 °C 9,5 °C 64 % 86 % 985,4 hPa 0,0 l/m² 4,3 km/h (1 Bft) S-SO 0,00 h 0 W/m² 7,3 °C 9,4 °C 7,0 km/h (2 Bft)
03.11.2023 02:00 20,8 °C 8,9 °C 64 % 87 % 985,5 hPa 0,0 l/m² 5,0 km/h (1 Bft) S 0,00 h 0 W/m² 6,8 °C 8,2 °C 7,3 km/h (2 Bft)
03.11.2023 03:00 20,8 °C 8,7 °C 64 % 86 % 985,5 hPa 0,0 l/m² 6,8 km/h (2 Bft) S-SO 0,00 h 0 W/m² 6,5 °C 8,2 °C 10,4 km/h (2 Bft)
03.11.2023 04:00 20,9 °C 8,4 °C 64 % 85 % 985,3 hPa 0,0 l/m² 6,9 km/h (2 Bft) S 0,00 h 0 W/m² 6,0 °C 7,5 °C 9,7 km/h (2 Bft)
03.11.2023 05:00 21,0 °C 7,4 °C 64 % 86 % 985,7 hPa 0,0 l/m² 3,5 km/h (1 Bft) W-SW 0,00 h 0 W/m² 5,2 °C 7,4 °C 5,5 km/h (2 Bft)
03.11.2023 06:00 21,0 °C 7,2 °C 64 % 85 % 985,8 hPa 0,0 l/m² 5,8 km/h (2 Bft) SO 0,00 h 0 W/m² 4,8 °C 6,6 °C 9,0 km/h (2 Bft)
03.11.2023 07:00 20,9 °C 6,4 °C 62 % 85 % 985,8 hPa 0,0 l/m² 2,8 km/h (1 Bft) SO 0,00 h 15 W/m² 4,2 °C 6,4 °C 4,9 km/h (1 Bft)
03.11.2023 08:00 21,1 °C 6,6 °C 62 % 87 % 986,6 hPa 0,0 l/m² 7,2 km/h (2 Bft) S-SO 0,55 h 74 W/m² 4,6 °C 4,9 °C 10,7 km/h (2 Bft)
03.11.2023 09:00 21,6 °C 8,7 °C 61 % 83 % 987,0 hPa 0,0 l/m² 11,6 km/h (2 Bft) S 1,00 h 237 W/m² 6,0 °C 5,3 °C 16,9 km/h (3 Bft)
03.11.2023 10:00 22,0 °C 10,1 °C 60 % 80 % 987,0 hPa 0,0 l/m² 11,3 km/h (2 Bft) S-SW 1,02 h 284 W/m² 6,8 °C 7,1 °C 15,4 km/h (3 Bft)
03.11.2023 11:00 21,9 °C 10,3 °C 60 % 79 % 986,9 hPa 0,0 l/m² 14,2 km/h (3 Bft) SW 1,00 h 195 W/m² 6,8 °C 6,1 °C 19,5 km/h (3 Bft)
03.11.2023 12:00 21,8 °C 11,5 °C 60 % 78 % 987,2 hPa 0,0 l/m² 8,8 km/h (2 Bft) SW 1,00 h 297 W/m² 7,7 °C 9,9 °C 12,7 km/h (3 Bft)
03.11.2023 13:00 21,8 °C 11,2 °C 60 % 78 % 987,2 hPa 0,0 l/m² 10,7 km/h (2 Bft) SW 1,00 h 177 W/m² 7,5 °C 8,6 °C 14,5 km/h (3 Bft)
03.11.2023 14:00 21,7 °C 10,8 °C 60 % 79 % 987,4 hPa 0,0 l/m² 11,2 km/h (2 Bft) SW 1,00 h 117 W/m² 7,3 °C 7,9 °C 15,4 km/h (3 Bft)
03.11.2023 15:00 21,7 °C 10,2 °C 61 % 81 % 987,7 hPa 0,0 l/m² 10,7 km/h (2 Bft) SW 0,83 h 70 W/m² 7,2 °C 7,5 °C 14,2 km/h (3 Bft)
03.11.2023 16:00 21,5 °C 9,5 °C 61 % 83 % 987,7 hPa 0,0 l/m² 8,1 km/h (2 Bft) SW 0,00 h 19 W/m² 6,7 °C 8,1 °C 10,9 km/h (2 Bft)
03.11.2023 17:00 21,4 °C 8,5 °C 61 % 85 % 988,2 hPa 0,0 l/m² 3,2 km/h (1 Bft) S-SW 0,00 h 0 W/m² 6,1 °C 8,5 °C 5,0 km/h (1 Bft)
03.11.2023 18:00 21,3 °C 7,7 °C 61 % 87 % 988,6 hPa 0,0 l/m² 1,4 km/h (1 Bft) W-SW 0,00 h 0 W/m² 5,7 °C 7,7 °C 2,3 km/h (1 Bft)
03.11.2023 19:00 21,4 °C 7,6 °C 62 % 88 % 989,5 hPa 0,0 l/m² 4,4 km/h (1 Bft) O-NO 0,00 h 0 W/m² 5,8 °C 7,6 °C 6,0 km/h (2 Bft)
03.11.2023 20:00 21,7 °C 7,6 °C 61 % 88 % 990,0 hPa 0,0 l/m² 5,9 km/h (2 Bft) SW 0,00 h 0 W/m² 5,7 °C 7,2 °C 8,1 km/h (2 Bft)
03.11.2023 21:00 21,7 °C 8,0 °C 61 % 86 % 990,4 hPa 0,0 l/m² 11,9 km/h (2 Bft) SW 0,00 h 0 W/m² 5,8 °C 4,4 °C 16,0 km/h (3 Bft)
03.11.2023 22:00 21,5 °C 8,1 °C 61 % 84 % 990,4 hPa 0,0 l/m² 17,2 km/h (3 Bft) SW 0,00 h 0 W/m² 5,6 °C 1,9 °C 23,3 km/h (4 Bft)
03.11.2023 23:00 21,4 °C 7,8 °C 61 % 84 % 990,8 hPa 0,0 l/m² 12,3 km/h (2 Bft) S-SW 0,00 h 0 W/m² 5,3 °C 3,9 °C 16,8 km/h (3 Bft)
04.11.2023 00:00 21,4 °C 7,8 °C 61 % 83 % 991,1 hPa 0,0 l/m² 13,7 km/h (3 Bft) S-SW 0,00 h 0 W/m² 5,1 °C 3,1 °C 19,0 km/h (3 Bft)
04.11.2023 01:00 21,3 °C 7,6 °C 61 % 82 % 991,2 hPa 0,0 l/m² 8,2 km/h (2 Bft) S-SW 0,00 h 0 W/m² 4,7 °C 5,9 °C 12,2 km/h (2 Bft)
04.11.2023 02:00 21,3 °C 7,6 °C 61 % 82 % 991,2 hPa 0,0 l/m² 9,2 km/h (2 Bft) S 0,00 h 0 W/m² 4,6 °C 5,1 °C 13,6 km/h (3 Bft)
04.11.2023 03:00 21,3 °C 6,7 °C 61 % 83 % 991,5 hPa 0,0 l/m² 7,7 km/h (2 Bft) S 0,00 h 0 W/m² 4,1 °C 5,0 °C 11,2 km/h (2 Bft)
04.11.2023 04:00 21,3 °C 6,1 °C 60 % 86 % 991,5 hPa 0,0 l/m² 11,4 km/h (2 Bft) S-SO 0,00 h 0 W/m² 3,9 °C 2,4 °C 16,3 km/h (3 Bft)
04.11.2023 05:00 21,3 °C 6,7 °C 60 % 86 % 991,5 hPa 0,0 l/m² 11,5 km/h (2 Bft) S-SO 0,00 h 0 W/m² 4,6 °C 3,1 °C 16,6 km/h (3 Bft)
04.11.2023 06:00 21,2 °C 7,3 °C 60 % 84 % 991,2 hPa 0,0 l/m² 11,3 km/h (2 Bft) S-SO 0,00 h 0 W/m² 4,8 °C 3,8 °C 16,4 km/h (3 Bft)
04.11.2023 07:00 21,2 °C 7,5 °C 60 % 83 % 990,8 hPa 0,0 l/m² 13,2 km/h (3 Bft) S 0,00 h 16 W/m² 4,8 °C 3,1 °C 19,0 km/h (3 Bft)
04.11.2023 08:00 21,2 °C 8,0 °C 60 % 82 % 990,5 hPa 0,0 l/m² 13,5 km/h (3 Bft) S-SO 0,77 h 65 W/m² 5,1 °C 3,4 °C 19,1 km/h (3 Bft)
04.11.2023 09:00 21,6 °C 9,1 °C 59 % 79 % 990,1 hPa 0,0 l/m² 15,9 km/h (3 Bft) S-SO 1,00 h 264 W/m² 5,7 °C 3,8 °C 23,8 km/h (4 Bft)
04.11.2023 10:00 22,3 °C 10,3 °C 53 % 76 % 989,8 hPa 0,0 l/m² 19,6 km/h (3 Bft) S 1,00 h 336 W/m² 6,2 °C 3,8 °C 28,2 km/h (5 Bft)
04.11.2023 11:00 22,4 °C 11,0 °C 49 % 73 % 989,1 hPa 0,0 l/m² 20,9 km/h (4 Bft) S 1,02 h 391 W/m² 6,3 °C 4,3 °C 30,0 km/h (5 Bft)
04.11.2023 12:00 22,5 °C 11,5 °C 51 % 71 % 988,4 hPa 0,0 l/m² 21,8 km/h (4 Bft) S 0,98 h 404 W/m² 6,3 °C 4,7 °C 31,2 km/h (5 Bft)
04.11.2023 13:00 22,3 °C 11,0 °C 53 % 70 % 987,7 hPa 0,0 l/m² 19,8 km/h (3 Bft) S 1,00 h 263 W/m² 5,7 °C 4,7 °C 28,4 km/h (5 Bft)
04.11.2023 14:00 22,0 °C 11,1 °C 53 % 69 % 986,8 hPa 0,0 l/m² 16,6 km/h (3 Bft) S-SO 1,00 h 221 W/m² 5,6 °C 5,9 °C 23,3 km/h (4 Bft)
04.11.2023 15:00 21,8 °C 10,7 °C 55 % 70 % 985,7 hPa 0,0 l/m² 15,8 km/h (3 Bft) S-SO 0,62 h 83 W/m² 5,4 °C 5,8 °C 22,0 km/h (4 Bft)
04.11.2023 16:00 21,6 °C 9,5 °C 56 % 74 % 985,1 hPa 0,0 l/m² 9,0 km/h (2 Bft) O-SO 0,00 h 13 W/m² 5,0 °C 7,7 °C 13,4 km/h (3 Bft)
04.11.2023 17:00 21,4 °C 9,8 °C 57 % 73 % 984,1 hPa 0,0 l/m² 16,9 km/h (3 Bft) O-SO 0,00 h 0 W/m² 5,2 °C 4,1 °C 23,0 km/h (4 Bft)
04.11.2023 18:00 21,4 °C 9,9 °C 58 % 73 % 982,9 hPa 0,0 l/m² 15,1 km/h (3 Bft) O-SO 0,00 h 0 W/m² 5,2 °C 5,0 °C 20,5 km/h (4 Bft)
04.11.2023 19:00 21,5 °C 9,8 °C 59 % 73 % 982,2 hPa 0,0 l/m² 13,1 km/h (3 Bft) O-SO 0,00 h 0 W/m² 5,2 °C 5,7 °C 18,0 km/h (3 Bft)
04.11.2023 20:00 21,8 °C 9,5 °C 59 % 77 % 981,6 hPa 0,0 l/m² 15,3 km/h (3 Bft) SO 0,00 h 0 W/m² 5,6 °C 4,6 °C 22,3 km/h (4 Bft)
04.11.2023 21:00 21,9 °C 9,4 °C 59 % 79 % 980,9 hPa 0,0 l/m² 12,4 km/h (2 Bft) O-SO 0,00 h 0 W/m² 6,0 °C 5,7 °C 17,8 km/h (3 Bft)
04.11.2023 22:00 21,7 °C 9,3 °C 59 % 81 % 980,5 hPa 0,0 l/m² 8,0 km/h (2 Bft) O-SO 0,00 h 0 W/m² 6,2 °C 8,0 °C 11,8 km/h (2 Bft)
04.11.2023 23:00 21,4 °C 9,7 °C 60 % 81 % 980,4 hPa 0,0 l/m² 8,2 km/h (2 Bft) SO 0,00 h 0 W/m² 6,6 °C 8,4 °C 12,0 km/h (2 Bft)
05.11.2023 00:00 21,2 °C 9,7 °C 60 % 82 % 979,8 hPa 0,0 l/m² 9,3 km/h (2 Bft) SO 0,00 h 0 W/m² 6,9 °C 7,8 °C 13,9 km/h (3 Bft)
05.11.2023 01:00 21,2 °C 9,9 °C 60 % 83 % 979,3 hPa 0,0 l/m² 10,1 km/h (2 Bft) S-SO 0,00 h 0 W/m² 7,2 °C 7,5 °C 14,8 km/h (3 Bft)
05.11.2023 02:00 21,2 °C 10,4 °C 60 % 82 % 979,3 hPa 0,0 l/m² 10,1 km/h (2 Bft) S-SO 0,00 h 0 W/m² 7,4 °C 8,1 °C 14,7 km/h (3 Bft)
05.11.2023 03:00 21,2 °C 10,5 °C 60 % 81 % 979,2 hPa 0,0 l/m² 11,3 km/h (2 Bft) S-SO 0,00 h 0 W/m² 7,4 °C 7,5 °C 16,1 km/h (3 Bft)
05.11.2023 04:00 21,1 °C 9,2 °C 60 % 84 % 978,9 hPa 0,0 l/m² 7,6 km/h (2 Bft) O 0,00 h 0 W/m² 6,6 °C 8,0 °C 10,5 km/h (2 Bft)
05.11.2023 05:00 21,0 °C 9,7 °C 60 % 83 % 978,6 hPa 0,0 l/m² 15,4 km/h (3 Bft) SO 0,00 h 0 W/m² 7,0 °C 4,7 °C 20,6 km/h (4 Bft)
05.11.2023 06:00 21,0 °C 10,1 °C 60 % 83 % 978,2 hPa 0,0 l/m² 13,6 km/h (3 Bft) SO 0,00 h 0 W/m² 7,2 °C 5,9 °C 17,9 km/h (3 Bft)
05.11.2023 07:00 21,0 °C 9,7 °C 60 % 84 % 977,5 hPa 0,0 l/m² 13,4 km/h (3 Bft) SO 0,00 h 20 W/m² 7,1 °C 5,6 °C 17,9 km/h (3 Bft)
05.11.2023 08:00 21,1 °C 10,1 °C 60 % 83 % 977,5 hPa 0,0 l/m² 13,4 km/h (3 Bft) SO 0,50 h 55 W/m² 7,3 °C 6,0 °C 17,9 km/h (3 Bft)
05.11.2023 09:00 21,1 °C 10,9 °C 58 % 82 % 977,5 hPa 0,0 l/m² 13,2 km/h (3 Bft) SO 1,00 h 82 W/m² 8,0 °C 7,1 °C 17,6 km/h (3 Bft)
05.11.2023 10:00 21,3 °C 11,9 °C 60 % 80 % 977,8 hPa 0,0 l/m² 11,0 km/h (2 Bft) S-SO 1,00 h 131 W/m² 8,5 °C 9,3 °C 15,9 km/h (3 Bft)
05.11.2023 11:00 21,4 °C 12,6 °C 61 % 78 % 978,0 hPa 0,0 l/m² 17,5 km/h (3 Bft) S 1,00 h 127 W/m² 8,9 °C 7,5 °C 24,0 km/h (4 Bft)
05.11.2023 12:00 21,4 °C 13,0 °C 61 % 77 % 978,5 hPa 0,0 l/m² 17,9 km/h (3 Bft) S-SW 1,00 h 123 W/m² 9,0 °C 7,9 °C 24,3 km/h (4 Bft)
05.11.2023 13:00 21,4 °C 12,9 °C 58 % 77 % 979,1 hPa 0,0 l/m² 18,4 km/h (3 Bft) S-SW 1,00 h 77 W/m² 8,9 °C 7,7 °C 24,9 km/h (4 Bft)
05.11.2023 14:00 21,3 °C 12,9 °C 58 % 79 % 979,9 hPa 0,0 l/m² 21,4 km/h (4 Bft) S-SW 0,97 h 168 W/m² 9,3 °C 6,7 °C 28,7 km/h (5 Bft)
05.11.2023 15:00 21,6 °C 13,1 °C 58 % 80 % 980,9 hPa 0,0 l/m² 17,0 km/h (3 Bft) SW 0,77 h 133 W/m² 9,6 °C 8,3 °C 22,6 km/h (4 Bft)
05.11.2023 16:00 21,4 °C 12,2 °C 59 % 82 % 981,9 hPa 0,0 l/m² 15,6 km/h (3 Bft) SW 0,00 h 8 W/m² 9,2 °C 7,8 °C 21,5 km/h (4 Bft)
05.11.2023 17:00 21,3 °C 12,2 °C 60 % 81 % 983,2 hPa 0,0 l/m² 19,3 km/h (3 Bft) SW 0,00 h 0 W/m² 9,1 °C 6,4 °C 26,5 km/h (4 Bft)
05.11.2023 18:00 21,2 °C 11,9 °C 59 % 80 % 984,7 hPa 0,0 l/m² 17,6 km/h (3 Bft) SW 0,00 h 0 W/m² 8,6 °C 6,6 °C 24,4 km/h (4 Bft)
05.11.2023 19:00 21,2 °C 11,1 °C 61 % 82 % 986,2 hPa 0,0 l/m² 16,1 km/h (3 Bft) SW 0,00 h 0 W/m² 8,2 °C 6,1 °C 22,1 km/h (4 Bft)
05.11.2023 20:00 21,7 °C 11,4 °C 62 % 81 % 987,8 hPa 0,0 l/m² 20,4 km/h (4 Bft) SW 0,00 h 0 W/m² 8,2 °C 5,1 °C 28,0 km/h (5 Bft)
05.11.2023 21:00 21,7 °C 11,2 °C 61 % 82 % 989,6 hPa 0,0 l/m² 21,0 km/h (4 Bft) SW 0,00 h 0 W/m² 8,3 °C 4,6 °C 28,4 km/h (5 Bft)
05.11.2023 22:00 21,7 °C 11,1 °C 60 % 79 % 991,0 hPa 0,0 l/m² 21,2 km/h (4 Bft) SW 0,00 h 0 W/m² 7,6 °C 4,4 °C 29,2 km/h (5 Bft)
05.11.2023 23:00 21,4 °C 10,9 °C 60 % 77 % 992,0 hPa 0,0 l/m² 20,9 km/h (4 Bft) SW 0,00 h 0 W/m² 7,0 °C 4,3 °C 29,0 km/h (5 Bft)
Min-Datum _ 03.11.23 03.11.23 04.11.23 04.11.23 05.11.23 - 03.11.23 - - - 04.11.23 03.11.23 03.11.23
_ Min-Zeit 03:00 08:11 12:00 15:00 09:26 - 18:01 - - - 03:45 22:16 18:01
Minimum _ 20,8 °C 5,8 °C 48 % 67 % 977,3 hPa - 0,0 km/h (0 Bft) - - - 3,7 °C 0,1 °C 0,0 km/h (0 Bft)
Max-Datum _ 04.11.23 30.10.23 30.10.23 31.10.23 01.11.23 31.10.23 05.11.23 - 04.11.23 04.11.23 30.10.23 30.10.23 05.11.23
_ Max-Zeit 12:35 13:00 20:33 06:01 02:03 01:01 14:12 - 15:03 11:50 13:00 13:00 14:14
Maximum _ 22,7 °C 15,2 °C 66 % 96 % 1007,3 hPa 1,6 l/m² 35,4 km/h
S-SW (5 Bft)
- 0,05 h 552 W/m² 12,3 °C 15,2 °C 48,3 km/h
S-SW (6 Bft)
Durchschnitt _ 21,3 °C 10,8 °C 61 % 84 % 993,4 hPa #4,2 l/m² 10,0 km/h (2 Bft) SO #44:45 h 48 W/m² 8,2 °C 8,4 °C 14,1 km/h (3 Bft)
© 2009 Mathias Hoßbach